Regional Weather Roundup
Issued by NWS Sterling, VA

Home | Current Version | Previous Version | Graphics & Text | Print | Product List | Glossary On
Versions: 1 2 3 4 5 6 7 8 9 10 11 12 13 14 15 16 17 18 19 20 21 22 23 24 25 26 27 28 29 30 31 32 33 34 35 36 37 38 39 40 41 42 43 44 45 46 47 48 49 50
000
ASUS41 KLWX 021210
RWRLWX

REGIONAL WEATHER ROUNDUP
NATIONAL WEATHER SERVICE BALTIMORE MD/WASHINGTON DC
700 AM EST MON MAR 02 2015

Note: "FAIR" indicates few or no clouds below 12,000 feet
with no significant weather and/or obstructions to visibility.
 TC=TEMPERATURE CELSIUS

 * =Non NWS site. Station does not report precipitation (e.g. rain,
    snow, etc.), thunder, or fog.

DCZ001-MDZ009-015-VAZ040>042-051-053>054-021300-
WASHINGTON METRO

CITY           SKY/WX    TMP DP  RH WIND       PRES   REMARKS
WASHINGTON NAT CLOUDY    35  31  85 CALM      30.14R FOG
DULLES         CLOUDY    31  29  92 NW3       30.13R FOG
FT BELVOIR     FOG       32  32 100 CALM      30.15R VSB 3/4
QUANTICO       FOG       33  30  88 CALM      30.16R VSB 1/16
COLLEGE PARK*  CLOUDY    32  32 100 CALM      30.13R
LEESBURG*      CLOUDY    34  34 100 NW9       30.14R FOG     WCI  26
MANASSAS*      CLOUDY    34  32  93 CALM      30.15R FOG
GAITHERSBURG*  CLOUDY    30  28  93 CALM      30.15R

$$

MDZ006>007-011-014-021300-
BALTIMORE METRO

CITY           SKY/WX    TMP DP  RH WIND       PRES   REMARKS
BWI AIRPORT    MOCLDY    32  31  96 W7        30.12R FOG
MD SCIENCE CTR   N/A      1  52 100 MISG      30.13R
MARTIN STATE   CLOUDY    34  34 100 CALM      30.14R FOG
ANNAPOLIS      CLOUDY    32  31  96 SW12G24   30.13R FOG     WCI  23
FORT MEADE*    CLOUDY    32  32 100 CALM      30.15R VSB 1

$$

MDZ012-015-019>023-021300-
MARYLAND EASTERN SHORE

CITY           SKY/WX    TMP DP  RH WIND       PRES   REMARKS
OCEAN CITY     CLOUDY    32  32 100 W5        30.12R FOG
SALISBURY      CLOUDY    35  32  88 CALM      30.12R FOG
BAY BRIDGE AP*   N/A     32  32 100 CALM      30.13R FOG
EASTON*        FOG       34  34 100 CALM      30.16R VSB 3/4

$$

MDZ017>025-021300-
SOUTHERN MARYLAND

CITY           SKY/WX    TMP DP  RH WIND       PRES   REMARKS
PATUXENT RIVER FOG       32  31  96 NW6       30.14R VSB 1/4
ST INIGOES     FOG       33  30  88 N3        30.13R VSB 1/4
LEONARDTOWN*   CLOUDY    32  32 100 CALM      30.15R VSB<1/4

$$

MDZ003>005-021300-
NORTH CENTRAL MARYLAND

CITY           SKY/WX    TMP DP  RH WIND       PRES   REMARKS
FREDERICK*     MOCLDY    39  30  70 N12G23    30.16R
HAGERSTOWN APT CLOUDY    37  29  72 W10       30.14R
WESTMINSTER*   CLOUDY    34  32  93 NW7       30.11R

$$

MDZ501>502-021300-
WESTERN MARYLAND

CITY           SKY/WX    TMP DP  RH WIND       PRES   REMARKS
OAKLAND*       CLOUDY    25 N/A N/A W15G23    30.15R FOG     WCI  12
CUMBERLAND*    CLOUDY    36  28  75 NW9G22    30.24R WCI  29

$$

VAZ025>031-021300-
SHENANDOAH VALLEY

CITY           SKY/WX    TMP DP  RH WIND       PRES   REMARKS
WINCHESTER*    MOCLDY    41  30  65 NW21G29   30.12R
FRONT ROYAL*   CLOUDY    32  30  93 SE3       30.12R
LURAY*         FAIR      46  34  61 W18G24    30.11R
NEW MARKET*    CLOUDY    45  31  57 W6        30.12R
STAUNTON*      MOCLDY    46  34  62 W8        30.12R
WAYNESBORO*    PTSUNNY   44  35  70 SW12G20   30.10S

$$

WVZ021-048>050-054>055-021300-
EASTERN WEST VIRGINIA PANHANDLE

CITY           SKY/WX    TMP DP  RH WIND       PRES   REMARKS
MARTINSBURG    CLOUDY    41  29  62 W22G31    30.14R
PETERSBURG*    NOT AVBL

$$

VAZ036>039-050-021300-
CENTRAL FOOTHILLS

CITY           SKY/WX    TMP DP  RH WIND       PRES   REMARKS
CHARLOTTESVILL PTCLDY    32  30  92 VRB3      30.09R FOG
CULPEPER*      CLOUDY    34  34 100 CALM      30.13R FOG
ORANGE*        FOG       34  34 100 CALM      30.13R VSB 1/2
GORDONSVILLE*  FOG       32  32 100 CALM      30.10R VSB 1/4
WARRENTON*     FOG       33  33 100 CALM      30.13R VSB 3/4

$$

VAZ055>057-021300-
NORTH AND CENTRAL PIEDMONT

CITY           SKY/WX    TMP DP  RH WIND       PRES   REMARKS
FREDERICKSBRG* CLOUDY    34  34 100 CALM      30.14R FOG
STAFFORD*      FOG       32  32 100 CALM      30.18R VSB<1/4

$$

NCZ024-NYZ072-PAZ021-071-VAZ022-071-021300-
OTHER REGIONAL OBSERVATIONS

CITY           SKY/WX    TMP DP  RH WIND       PRES   REMARKS
NEW YORK CITY  CLOUDY    32  25  75 W6        30.05R
PHILADELPHIA   CLOUDY    32  30  92 W9        30.11R FOG     WCI  24
PITTSBURGH     LGT SNOW  22  18  85 NW18      30.32R FOG     WCI   7
ROANOKE        CLOUDY    46  37  71 W12       30.18R
RICHMOND       CLOUDY    34  33  96 SW7       30.13R FOG
RALEIGH        FOG       37  35  92 SW6       30.19F VSB 1/8

$$

ANZ530>537-021300-
MARINE OBSERVATIONS

STATION/POSITION TIME  TEMP    WIND        PRES
                       AIR SEA DIR/SP/G
                 (UTC) (F)     (DEG/KT/KT) (MB)
THOMAS PT LIGHT  1200   32 31     CALM     1021.4R
BALT KEY BRIDGE  1100   32                 1019.5R
COVE POINT       1100   32                 1019.6R
LEWISETTA        1100   33 33              1019.4R
SOLOMONS ISLAND  1106      32                N/A

$$




USA.gov is the U.S. government's official web portal to all federal, state and local government web resources and services.